FENGYUN 1C DEB, 31225

Orbit data source: Space-Track

FENGYUN 1C DEB, 31225 is space debris in SSO originally from a launch on Mon, 10 May 1999 UTC launched from the Taiyaun Space Center, China (TSC). Fengyun 1C debris stems from the Chinese weather satellite Fengyun-1C, which was intentionally destroyed by a Chinese anti-satellite missile in 2007. This event dramatically increased the amount of space debris, with thousands of trackable fragments posing hazards to satellites and human spaceflight. The Fengyun 1C debris cloud has become a focal point in discussions about space sustainability and the need for international regulations to prevent the creation of new debris.

Loading next visibility...
Identifier
31225, 1999-025BLF
Orbit
SSO
Country
Flag of CNCN / PRC
Related business
Manufacturer
Unknown
Mission
Spacecraft
Bus & Motor
Unknown
Mass
Unknown
Launch date (UTC)
1999-05-10 (27 years ago)
Launch vehicle
Unknown
Launch site
Taiyaun Space Center, China (TSC)
Object type
Payload
Rocket body
Debris
Shape & HBR
Unknown shape, 0.1 m
Radar Cross Section
Small (<0.1 m²)

Expand to show TLE details & history
Last TLE update: 16 hours ago

TLE from 16 hours ago
0 FENGYUN 1C DEB
1 31225U 99025BLF 26123.70629778  .00002292  00000-0  10852-2 0  9991
2 31225  98.9770 203.6845 0085524 306.8945 207.3260 14.18760337978343
Epoch: 2026-05-03T16:57Z
TLE epoch observation values (Epoch: 2026-05-03T16:57:04.128Z)
Latitude
25.91323°
Longitude
-87.8099°
Altitude
887.565 km
Speed
7.382 km/s
True Right ascension
01h 52m 15s
True Declination
25° 46' 51"
Sunlit
Object was in daylight at epoch
Visualization orbit readout
Latitude
Unknown
Longitude
Unknown
Altitude
Unknown
Speed
Unknown
Apparent Right ascension
Unknown
Apparent Declination
Unknown
Sunlit
N/A
Visualization observer readout
Local Sidereal Time
16:37:11
Azimuth
Unknown
Elevation
Unknown
Doppler factor
Unknown
Orbital elements
Apogee altitude
888.34 km
Perigee altitude
765.102 km
Semi-major axis
7,204.858 km
Eccentricity
0.00855
Inclination
98.977°
RAAN
203.6845°
Arg. of periapsis
306.8945°
True anomaly
206.88035°
Mean anomaly
207.326°
Eccentric anomaly
207.10275°
Mean motion
3.54899 °/min
Orbital period
101.44 mins
BSTAR
0.0010852
Loading maneuver chart data...
Computing Atmospheric mass density...
Loading historical data...
Loading historical data...
Loading historical data...
Loading historical data...
Loading historical data...
Loading historical data...
Loading historical data...

Documentation

Showing up to 5 results
|